User Downloaded

KERTAS DN API_tempo style
Author:Andy Sahdewa
Author Email:Hanya anggota bisa melihat email ini
Version:Dangdut
Author Website:http://www.jbmmusical.com
Total Upload:330
Alamat: MEDAN
Total Downloaded:43

#User Downloaded Tanggal
Last Seen Hits
49271 Zulhendry 12.29.2018 22:08:53 7 Bulan Lalu Di Download
46223 Zulhendry 10.17.2018 19:40:28 10 Bulan Lalu Di Download
46222 Zulhendry 10.17.2018 19:40:24 10 Bulan Lalu Di Download
46221 Zulhendry 10.17.2018 19:40:00 10 Bulan Lalu Di Download
46111 Zulhendry 10.17.2018 19:09:50 10 Bulan Lalu Di Download
46109 Zulhendry 10.17.2018 19:09:45 10 Bulan Lalu Di Download
42904 Zulhendry 09.05.2018 16:27:45 11 Bulan Lalu Di Download
42903 Zulhendry 09.05.2018 16:27:44 11 Bulan Lalu Di Download
42902 Zulhendry 09.05.2018 16:27:43 11 Bulan Lalu Di Download
40930 mamas cia 08.07.2018 23:06:21 1 Tahun Lalu Di Download
40929 mamas cia 08.07.2018 23:06:20 1 Tahun Lalu Di Download
37771 bintanq 06.05.2018 10:19:47 1 Tahun Lalu Di Download
37770 bintanq 06.05.2018 10:19:46 1 Tahun Lalu Di Download
37436 aseng_iq 05.29.2018 14:51:08 1 Tahun Lalu Di Download
37435 aseng_iq 05.29.2018 14:51:06 1 Tahun Lalu Di Download
37434 aseng_iq 05.29.2018 14:51:05 1 Tahun Lalu Di Download
35678 DIGODA 04.08.2018 20:36:13 1 Tahun Lalu Di Download
35677 DIGODA 04.08.2018 20:36:09 1 Tahun Lalu Di Download
29757 erinas ridho 11.07.2017 18:32:32 1 Tahun Lalu Di Download
29756 erinas ridho 11.07.2017 18:32:30 1 Tahun Lalu Di Download
29040 erinas ridho 10.25.2017 20:31:11 1 Tahun Lalu Di Download
29039 erinas ridho 10.25.2017 20:31:06 1 Tahun Lalu Di Download
28663 mamas cia 10.12.2017 20:32:41 1 Tahun Lalu Di Download
28662 mamas cia 10.12.2017 20:32:33 1 Tahun Lalu Di Download
24673 bedoel 08.03.2017 13:45:28 2 Tahun Lalu Di Download

User Online

Breaking Last

Contact Information

Admin Site
Contact Email to
erieeedoanq - Site Founder/ Ketua - Active
vj ayies - Server Admin - Not Active
Aan Dejaay - Aprove Submission - Not Active
Andy Sahdewa - Monitoring - Blockir - Active
Ameng produc - Webs Programer - Active
juno henk - Programer - Sibuk
Heri Heri Aja - Programer - Not Active
Sugito - Dunator Honor - Sport - Active